Voltar ao catálogo

STARLINK-33822

AtivoComunicaçõesVLEO
NORAD 63658·PAYLOAD·🇺🇸 United States

Lançado Apr 25, 2025 de Cape Canaveral Space Force Station

Loading…

Próximas Passagens (próximas 24 horas)

TLE

AtualizadoSource: CelesTrak SupGP

Época: Sep 14, 2026, 22:37 UTC

1 63658C 25083AA  26257.94284722 -.00001149  00000+0 -41624-4 0  2570
2 63658  43.0038  16.5644 0001452 271.0434 274.7718 15.27579373    13

Acompanhe STARLINK-33822 em tempo real com AllMySat

Download on the App Store